Date String (YYYY-MM-DD hh:mm:ss) UTC,Instrument flags,Ambient pressure (hPa),Sample flow (lpm),Bypass flow (lpm),Sample temperature (°C),Ambient temperature (°C),ASC tube jacket temperature (°C),LED temperature (°C),Box temperature (°C),Sample RH (%),Span deviation,Mass concentration (μg/m³),Mass concentration (μg/m³),Mass concentration (μg/m³)
DateTimeUTC,F1_M11,P_M11,Q1_M11,Q2_M11,T1_M11,T2_M11,T3_M11,T4_M11,T5_M11,U1_M11,ZSPAN_M11,X0_M11,X2_M11,X1_M11
2021-09-30 04:00:00,,0831.3,5.00,0.00,29.6,28.9,00.0,38.9,31.3,19.3,0000.0,0005.11,0002.90,0002.22
2021-09-30 04:01:00,,0831.4,5.01,0.00,29.6,28.9,00.0,38.8,31.3,19.2,0000.0,0005.32,0002.80,0002.10
2021-09-30 04:02:00,,0831.3,5.00,0.00,29.6,28.9,00.0,38.8,31.3,19.3,0000.0,0005.14,0002.67,0002.00
2021-09-30 04:03:00,,0831.4,4.99,0.00,29.6,28.9,00.0,38.8,31.3,19.1,0000.0,0005.67,0002.53,0001.91
2021-09-30 04:04:00,,0831.4,5.00,0.00,29.6,28.9,00.0,38.8,31.3,19.1,0000.0,0005.62,0002.47,0001.85
2021-09-30 04:05:00,,0831.5,5.01,0.00,29.6,28.9,00.0,38.8,31.3,19.0,0000.0,0005.73,0002.45,0001.78
2021-09-30 04:06:00,,0831.4,4.99,0.00,29.6,28.9,00.0,38.8,31.3,18.9,0000.0,0007.06,0002.39,0001.73
2021-09-30 04:07:00,,0831.5,5.01,0.00,29.6,28.9,00.0,38.8,31.3,18.9,0000.0,0007.00,0002.28,0001.67
2021-09-30 04:08:00,,0831.5,4.99,0.00,29.6,28.8,00.0,38.8,31.3,19.0,0000.0,0007.01,0002.23,0001.61
2021-09-30 04:09:00,,0831.5,4.99,0.00,29.6,28.8,00.0,38.8,31.3,19.2,0000.0,0007.10,0002.21,0001.57
2021-09-30 04:10:00,,0831.5,5.00,0.00,29.6,28.8,00.0,38.8,31.3,19.0,0000.0,0007.13,0002.18,0001.52
2021-09-30 04:11:00,,0831.5,5.01,0.00,29.6,28.8,00.0,38.8,31.3,19.1,0000.0,0006.97,0002.19,0001.47
2021-09-30 04:12:00,,0831.5,5.00,0.00,29.6,28.8,00.0,38.8,31.3,19.0,0000.0,0006.43,0002.12,0001.43
2021-09-30 04:13:00,,0831.5,4.99,0.00,29.5,28.8,00.0,38.7,31.3,19.0,0000.0,0006.51,0002.11,0001.39
2021-09-30 04:14:00,,0831.5,5.01,0.00,29.6,28.8,00.0,38.7,31.3,18.6,0000.0,0006.06,0002.11,0001.35
2021-09-30 04:15:00,,0831.5,4.99,0.00,29.6,28.8,00.0,38.7,31.3,18.4,0000.0,0005.89,0002.06,0001.31
2021-09-30 04:16:00,,0831.5,5.00,0.00,29.6,28.8,00.0,38.7,31.3,18.0,0000.0,0005.76,0002.00,0001.28
2021-09-30 04:17:00,,0831.5,5.02,0.00,29.5,28.8,00.0,38.7,31.2,18.0,0000.0,0004.16,0001.97,0001.24
2021-09-30 04:18:00,,0831.5,4.97,0.00,29.5,28.8,00.0,38.7,31.2,17.8,0000.0,0003.94,0001.96,0001.22
2021-09-30 04:19:00,,0831.5,5.01,0.00,29.5,28.8,00.0,38.7,31.3,18.0,0000.0,0003.75,0001.89,0001.20
2021-09-30 04:20:00,,0831.5,5.00,0.00,29.5,28.8,00.0,38.7,31.3,17.9,0000.0,0003.61,0001.84,0001.17
2021-09-30 04:21:00,,0831.5,5.01,0.00,29.5,28.8,00.0,38.7,31.2,17.9,0000.0,0003.51,0001.79,0001.16
2021-09-30 04:22:00,,0831.5,5.00,0.00,29.5,28.8,00.0,38.7,31.2,17.7,0000.0,0003.32,0001.70,0001.14
2021-09-30 04:23:00,,0831.5,4.99,0.00,29.5,28.8,00.0,38.7,31.2,17.7,0000.0,0003.59,0001.68,0001.13
2021-09-30 04:24:00,,0831.5,4.99,0.00,29.5,28.8,00.0,38.7,31.2,17.7,0000.0,0003.52,0001.64,0001.12
2021-09-30 04:25:00,,0831.5,5.00,0.00,29.5,28.8,00.0,38.7,31.2,17.7,0000.0,0003.16,0001.57,0001.11
2021-09-30 04:26:00,,0831.5,5.02,0.00,29.5,28.8,00.0,38.7,31.2,17.8,0000.0,0002.92,0001.53,0001.10
2021-09-30 04:27:00,,0831.5,4.99,0.00,29.5,28.8,00.0,38.7,31.2,17.9,0000.0,0003.34,0001.50,0001.10
2021-09-30 04:28:00,,0831.6,5.00,0.00,29.5,28.8,00.0,38.7,31.2,17.9,0000.0,0005.78,0001.52,0001.10
2021-09-30 04:29:00,,0831.7,5.00,0.00,29.5,28.8,00.0,38.7,31.2,17.9,0000.0,0006.34,0001.54,0001.10
2021-09-30 04:30:00,,0831.7,5.00,0.00,29.5,28.8,00.0,38.7,31.2,17.8,0000.0,0006.86,0001.55,0001.10
2021-09-30 04:31:00,,0831.7,5.00,0.00,29.5,28.8,00.0,38.6,31.2,17.8,0000.0,0007.30,0001.57,0001.11
2021-09-30 04:32:00,,0831.8,5.00,0.00,29.5,28.8,00.0,38.6,31.2,18.0,0000.0,0007.44,0001.61,0001.11
2021-09-30 04:33:00,,0832.0,5.00,0.00,29.5,28.8,00.0,38.6,31.2,18.1,0000.0,0007.46,0001.59,0001.11
2021-09-30 04:34:00,,0831.9,5.00,0.00,29.5,28.8,00.0,38.6,31.2,18.1,0000.0,0007.67,0001.61,0001.11
2021-09-30 04:35:00,,0831.9,5.00,0.00,29.5,28.8,00.0,38.6,31.2,18.2,0000.0,0007.62,0001.60,0001.11
2021-09-30 04:36:00,,0832.0,5.00,0.00,29.5,28.8,00.0,38.6,31.2,18.1,0000.0,0007.73,0001.62,0001.12
2021-09-30 04:37:00,,0831.9,5.00,0.00,29.5,28.8,00.0,38.6,31.2,18.3,0000.0,0007.89,0001.61,0001.12
2021-09-30 04:38:00,,0832.0,4.99,0.00,29.5,28.8,00.0,38.6,31.3,18.5,0000.0,0007.36,0001.62,0001.13
2021-09-30 04:39:00,,0832.0,4.99,0.00,29.5,28.8,00.0,38.6,31.3,18.4,0000.0,0005.44,0001.61,0001.13
2021-09-30 04:40:00,,0832.1,5.00,0.00,29.5,28.8,00.0,38.6,31.3,18.3,0000.0,0004.98,0001.62,0001.13
2021-09-30 04:41:00,,0832.1,5.01,0.00,29.5,28.8,00.0,38.6,31.3,18.2,0000.0,0004.55,0001.63,0001.13
2021-09-30 04:42:00,,0832.0,4.99,0.00,29.5,28.8,00.0,38.6,31.3,18.3,0000.0,0004.11,0001.59,0001.13
2021-09-30 04:43:00,,0832.1,4.99,0.00,29.5,28.8,00.0,38.6,31.2,18.4,0000.0,0004.01,0001.55,0001.14
2021-09-30 04:44:00,,0832.0,5.01,0.00,29.5,28.8,00.0,38.6,31.2,18.4,0000.0,0004.00,0001.61,0001.16
2021-09-30 04:45:00,,0832.1,4.99,0.00,29.5,28.8,00.0,38.6,31.2,18.4,0000.0,0003.42,0001.64,0001.17
2021-09-30 04:46:00,,0832.0,5.01,0.00,29.5,28.7,00.0,38.6,31.2,18.4,0000.0,0003.46,0001.65,0001.18
2021-09-30 04:47:00,,0832.1,5.01,0.00,29.5,28.7,00.0,38.6,31.1,18.4,0000.0,0003.30,0001.66,0001.18
2021-09-30 04:48:00,,0832.0,4.98,0.00,29.4,28.7,00.0,38.6,31.1,18.5,0000.0,0003.08,0001.66,0001.17
2021-09-30 04:49:00,,0832.1,5.01,0.00,29.4,28.7,00.0,38.6,31.1,18.4,0000.0,0003.13,0001.64,0001.16
2021-09-30 04:50:00,,0832.1,4.99,0.00,29.4,28.6,00.0,38.6,31.1,18.2,0000.0,0003.26,0001.59,0001.14
2021-09-30 04:51:00,,0832.1,5.00,0.00,29.4,28.6,00.0,38.6,31.0,18.2,0000.0,0003.36,0001.56,0001.11
2021-09-30 04:52:00,,0832.1,5.01,0.00,29.4,28.6,00.0,38.6,31.0,18.3,0000.0,0003.52,0001.57,0001.09
2021-09-30 04:53:00,,0832.1,5.01,0.00,29.4,28.6,00.0,38.6,31.0,18.4,0000.0,0003.46,0001.55,0001.06
2021-09-30 04:54:00,,0832.3,4.99,0.00,29.3,28.5,00.0,38.5,31.0,18.3,0000.0,0003.45,0001.55,0001.03
2021-09-30 04:55:00,,0832.3,5.01,0.00,29.3,28.5,00.0,38.5,31.0,18.3,0000.0,0003.48,0001.50,0000.99
2021-09-30 04:56:00,,0832.3,5.00,0.00,29.3,28.5,00.0,38.5,31.0,18.3,0000.0,0003.49,0001.45,0000.97
2021-09-30 04:57:00,,0832.2,5.00,0.00,29.3,28.5,00.0,38.5,31.0,18.2,0000.0,0003.43,0001.40,0000.95
2021-09-30 04:58:00,,0832.2,5.02,0.00,29.3,28.4,00.0,38.5,30.9,18.2,0000.0,0003.29,0001.34,0000.93
2021-09-30 04:59:00,,0832.2,4.99,0.00,29.3,28.4,00.0,38.5,30.9,18.4,0000.0,0003.28,0001.34,0000.91
